Location: Bełchatów
(51.3638°N, 19.3624°E)
Time: 05:26:16
(UTC+02:00)

ISS - Visible Passes

Search period start: 28 May 2018 00:00
Search period end: 07 June 2018 00:00
Orbit: 402 x 407 km, 51.6° (Epoch: 28 May)

Date Brightness Start Highest point End Pass type
(mag) Time Alt. Az. Time Alt. Az. Time Alt. Az.
28 May -1.5 01:07:45 10° W 01:08:21 13° W 01:08:21 13° W visible
28 May -3.9 22:38:46 10° W 22:42:03 88° SSW 22:45:05 12° E visible
29 May -2.8 00:15:21 10° W 00:17:42 30° SW 00:17:42 30° SW visible
29 May -3.8 21:46:32 10° W 21:49:49 84° N 21:53:06 10° E visible
29 May -3.6 23:23:03 10° W 23:26:14 49° SSW 23:27:06 37° SSE visible
30 May -3.9 22:30:47 10° W 22:34:03 67° SSW 22:36:30 16° ESE visible
31 May -1.9 00:07:40 10° W 00:09:08 17° WSW 00:09:08 17° WSW visible
31 May -3.9 21:38:31 10° W 21:41:49 84° SSW 21:45:05 10° ESE visible
31 May -2.8 23:15:09 10° W 23:18:04 29° SSW 23:18:34 28° SSW visible
01 Jun -3.3 22:22:46 10° W 22:25:55 43° SSW 22:28:02 18° SE visible
02 Jun -2.0 23:07:30 10° W 23:09:44 17° SW 23:10:09 17° SSW visible
03 Jun -2.5 22:14:51 10° W 22:17:38 26° SSW 22:19:40 15° SSE visible
05 Jun -1.6 22:07:17 10° WSW 22:09:12 15° SW 22:11:07 10° S visible
